Regional Weather Roundup
Issued by NWS

Home | Current Version | Previous Version | Graphics & Text | Print | Product List | Glossary Off
Versions: 1 2 3 4 5 6 7 8 9 10 11 12 13 14 15 16 17 18 19 20 21 22 23 24 25 26 27 28 29 30 31 32 33 34 35 36 37 38 39 40 41 42 43 44 45 46 47 48 49 50

000
ASUS43 KMPX 010910
RWRMN
WEATHER ROUNDUP FOR MINNESOTA
NATIONAL WEATHER SERVICE TWIN CITIES/CHANHASSEN MN
400 AM CDT WED JUL 01 2015


NOTE: "FAIR" INDICATES FEW OR NO CLOUDS BELOW 12,000 FEET WITH NO
SIGNIFICANT WEATHER AND/OR OBSTRUCTIONS TO VISIBILITY. N/A MEANS
CURRENT SKY AND/OR WEATHER CONDITIONS ARE NOT AVAILABLE.

MNZ060>063-068>070-011000-
   Twin Cities Metro

CITY           SKY/WX    TMP DP  RH WIND       PRES   REMARKS
TWIN CITIES    CLOUDY    61  47  59 SE10      29.97R
ST PAUL        CLOUDY    60  49  66 SE7       29.98R
CRYSTAL        CLOUDY    63  49  60 E6        29.95S
BLAINE         CLOUDY    61  52  72 CALM      29.97R
LAKEVILLE      CLOUDY    55  52  88 E5        29.97S
EDEN PRAIRIE   CLOUDY    62  52  69 E6        29.96R
SOUTH ST PAUL  CLOUDY    60  48  63 CALM      29.97S HAZE
LAKE ELMO      FAIR      59  50  72 E5        29.99S
$$
MNZ001>005-007-008-013>017-022>024-027-028-011000-
   Northwest Minnesota

CITY           SKY/WX    TMP DP  RH WIND       PRES   REMARKS
BEMIDJI        PTCLDY    53  51  92 CALM      29.96S
HALLOCK        CLEAR     55  54  94 CALM      29.93S FOG
ROSEAU         MOCLDY    55  52  88 CALM      29.95S
WARROAD        MOCLDY    57  54  88 CALM      29.96S
THIEF RVR FALL CLEAR     59  52  77 CALM      29.95S
CROOKSTON      CLEAR     59  54  82 E6        29.94R
FOSSTON        PTCLDY    54  48  82 CALM      29.95S
DETROIT LAKES  CLOUDY    63  57  82 CALM      29.95S
MOORHEAD       CLOUDY    64  63  94 CALM      29.93R
PARK RAPIDS    CLOUDY    62  56  80 E3        29.95S
MAHNOMEN       FAIR      61  56  84 SE5       29.94S
$$
MNZ006-009>011-018-025>026-011000-
   North Central Minnesota

CITY           SKY/WX    TMP DP  RH WIND       PRES   REMARKS
BAUDETTE       PTCLDY    54  51  90 SE3       29.96S
FLAG ISLAND    PTCLDY    64  57  77 S3        29.94S
INTL FALLS     PTCLDY    44  43  96 CALM      29.97S
WASKISH        PTCLDY    54  52  94 CALM      29.96S
BIG FORK       PTCLDY    48  46  93 CALM      29.98S
LONGVILLE      PTCLDY    54  54 100 CALM      29.97S
GRAND RAPIDS   MOCLDY    52  48  87 CALM      29.99R
CRANE LAKE     PTCLDY    43  43 100 CALM      30.00R
COOK           PTCLDY    45  45 100 CALM      29.99S
WALKER         FAIR      59  56  89 S3        29.96S
$$
MNZ012-019>021-037-011000-
   Northeast Minnesota

CITY           SKY/WX    TMP DP  RH WIND       PRES   REMARKS
DULUTH         PTCLDY    49  45  86 E3        29.99S
ELY            PTCLDY    43  43 100 CALM      29.99S
HIBBING        PTCLDY    44  43  96 CALM      29.99S FOG
DULUTH HARBOR  PTCLDY    55  52  88 NE6       30.00S
TWO HARBORS    PTCLDY    46  41  81 N1        29.98S
SILVER BAY     PTCLDY    43  39  87 CALM      29.98S
GRAND MARAIS     N/A     50  41  71 NW5       29.98F
G MARAIS ARPRT CLEAR     37  34  87 W3        30.01R
$$
MNZ029>031-032-039>041-046>048-054>057-064-011000-
   West Central Minnesota

CITY           SKY/WX    TMP DP  RH WIND       PRES   REMARKS
FERGUS FALLS   DRIZZLE   64  64 100 CALM      29.94R
WHEATON        DRIZZLE   61  61 100 CALM      29.94F
MORRIS         CLOUDY    64  61  88 SE5       29.94R
ALEXANDRIA     CLOUDY    63  58  83 S7        29.96S
ELBOW LAKE     RAIN      64  62  91 S7        29.94R
WADENA           N/A     61  55  82 E3        29.95R
GLENWOOD       CLOUDY    63  57  82 CALM      29.96R
APPLETON       MOCLDY    64  59  82 SE6       29.93R
BENSON         MOCLDY    64  57  77 S8        29.94R
ORTONVILLE     CLOUDY    64  61  88 E6        29.92S
MADISON        MOCLDY    63  59  88 CALM      29.94R
WILLMAR        FAIR      64  57  77 SE9       29.95S
$$
MNZ033>034-036-042>043-049>051-058-059-011000-
   Central Minnesota

CITY           SKY/WX    TMP DP  RH WIND       PRES   REMARKS
ST CLOUD       MOCLDY    60  55  83 E5        29.96R
SAUK CENTRE    FAIR      61  57  87 SE3       29.96R
PAYNESVILLE    PTCLDY    61  55  80 E8        29.96R
AITKIN         PTCLDY    54  48  82 CALM      29.96S
PINE RIVER       N/A     57  54  88 SE3       30.01R
BRAINERD       MOCLDY    57  53  86 S3        29.98R
STAPLES        CLOUDY    61  55  82 CALM      29.96R
LONG PRAIRIE   CLOUDY    61  55  82 CALM      29.96R
LITTLE FALLS   CLOUDY    59  54  82 SE3       29.97R
LITCHFIELD     PTCLDY    63  57  82 SE7       29.96S
BUFFALO        MOCLDY    60  54  79 E3        29.97S
MAPLE LAKE     MOCLDY    62  57  83 CALM      29.97S
$$
MNZ037-044-045-052-053-011000-
   East Central Minnesota

CITY           SKY/WX    TMP DP  RH WIND       PRES   REMARKS
PRINCETON      CLOUDY    61  54  77 CALM      29.98R
MORA           MOCLDY    54  52  94 CALM      30.00R
CAMBRIDGE      MOCLDY    61  50  67 SE3       29.96S
RUSH CITY      MOCLDY    55  52  90 CALM      29.99R
MOOSE LAKE     PTCLDY    48  48 100 CALM      29.98R
HINCKLEY       FAIR      50  50 100 CALM      29.99R
CLOQUET        PTCLDY    48  46  93 E3        29.99R
MCGREGOR       PTCLDY    50  46  87 CALM      29.99R
$$
MNZ071>073-080-081-089-090-097-098-011000-
   Southwest Minnesota

CITY           SKY/WX    TMP DP  RH WIND       PRES   REMARKS
MONTEVIDEO     PTCLDY    63  59  88 S7        29.94R
GRANITE FALLS  PTCLDY    62  58  87 E5        29.94R
CANBY          CLOUDY    61  59  95 CALM      29.94R FOG
MARSHALL       MOCLDY    61  55  82 SE6       29.93R
REDWOOD FALLS  CLEAR     62  57  83 E6        29.93S
OLIVIA         CLEAR     59  54  82 SE7       29.93S
PIPESTONE      LGT RAIN  64  59  82 SE6       29.91F
WINDOM         PTCLDY    61  57  88 SE5       29.94S
WORTHINGTON    MOCLDY    63  57  82 SE6       29.93R
JACKSON        PTCLDY    59  57  94 SE6       29.93F
TRACY          MOCLDY    63  60  90 SE5       29.93R
SLAYTON        MOCLDY    61  60  97 CALM      29.93S
$$
MNZ065>067-074>077-082>085-091>093-011000-
   South Central Minnesota

CITY           SKY/WX    TMP DP  RH WIND       PRES   REMARKS
MANKATO        MOCLDY    63  52  67 E10       29.95S
NEW ULM        PTCLDY    61  55  82 E8        29.93F
ST JAMES       PTCLDY    61  57  88 E3        29.94F
FAIRMONT       CLEAR     57  52  82 E8        29.93F
GLENCOE        PTCLDY    60  56  89 E6        29.95S
FARIBAULT      CLOUDY    59  52  77 E5        29.97S
OWATONNA       MOCLDY    57  52  82 E7        29.97S
WASECA         PTCLDY    59  54  82 E9        29.96F
ALBERT LEA     PTCLDY    59  54  82 E3        29.96S
$$
MNZ078>079-086>088-094>096-011000-
   Southeast Minnesota

CITY           SKY/WX    TMP DP  RH WIND       PRES   REMARKS
ROCHESTER      CLOUDY    56  51  84 NE6       29.98F
RED WING       MOCLDY    57  50  77 E5        29.97S
STANTON        CLOUDY    57  52  82 CALM      29.97R
DODGE CENTER   MOCLDY    57  55  94 E3        29.98R
WINONA         PTCLDY    55  54  94 CALM      29.98S
AUSTIN         PTCLDY    57  54  88 E7        29.95F
PRESTON        CLOUDY    55  51  87 NE5       29.98S
$$
ABBREVIATIONS USED IN REMARKS
   TC - TEMPERATURES IN CELSIUS
  WCI - WIND CHILL INDEX
   HX - HEAT INDEX
  VSB - VISIBILITY
$$



USA.gov is the U.S. government's official web portal to all federal, state and local government web resources and services.